Location: Maiden
(35.5760°N, 81.2120°W)
Time: 20:38:09
(UTC-05:00)

Cosmos 2263 Rocket - Pass Details

Date: 14 June 2018
Orbit: 822 x 850 km, 71.0° (Epoch: 12 December)

Event Time Altitude Azimuth Distance (km) Brightness Sun altitude
Rises 21:20:41 0° 169° (S) 3,398 4.9 -7.5°
Reaches altitude 10° 21:23:28 10° 157° (SSE) 2,467 4.1 -7.9°
Maximum altitude 21:28:07 27° 102° (ESE) 1,589 3.1 -8.7°
Drops below altitude 10° 21:32:46 10° 47° (NE) 2,473 4.5 -9.5°
Sets 21:35:33 0° 35° (NE) 3,409 5.4 -9.9°
